AFR389 TNCM-LFPG

Flight info

Callsign AFR389
Flight time N/A
Altitude 39000
Route MNOLO M576 OBIKE DCT 20N060W 23N055W 26N050W 32N040W 35N030W 3830N02000W DCT DETOX/N0476F400 DCT PETEK DCT LOTEE DCT GATMO DCT NTS DCT ANG/N0449F300 UN741 TEMTO DCT ROMGO
Aircraft A332/H-SDE3GHIJ2J3J5M1RVWXY/LB2D1

Departure

Time 2026-05-08 05:06
Airport Princess Juliana International Airport (TNCM)

Arrival

Time N/A
Airport Charles de Gaulle International Airport (LFPG)
Time Latitude Longitude Altitude Speed Heading
2026-05-08 04:26 18.04326 -63.11362 25 ft 0 kts 352°
2026-05-08 04:38 18.04325 -63.11362 25 ft 0 kts 352°
2026-05-08 04:56 18.04316 -63.11360 25 ft 4 kts 354°
2026-05-08 04:56 18.04289 -63.11359 28 ft 4 kts
2026-05-08 04:56 18.04262 -63.11362 30 ft 4 kts 19°
2026-05-08 04:56 18.04241 -63.11376 29 ft 4 kts 59°
2026-05-08 04:57 18.04236 -63.11389 30 ft 1 kts 82°
2026-05-08 04:57 18.04236 -63.11390 30 ft 0 kts 82°
2026-05-08 05:00 18.04236 -63.11360 27 ft 8 kts 95°
2026-05-08 05:00 18.04198 -63.11310 27 ft 11 kts 161°
2026-05-08 05:00 18.04173 -63.11302 25 ft 0 kts 167°
2026-05-08 05:02 18.04172 -63.11302 25 ft 1 kts 167°
2026-05-08 05:02 18.04139 -63.11295 29 ft 10 kts 170°
2026-05-08 05:02 18.04047 -63.11245 27 ft 19 kts 113°
2026-05-08 05:02 18.04066 -63.11074 28 ft 32 kts 79°
2026-05-08 05:03 18.04105 -63.10818 27 ft 37 kts 84°
2026-05-08 05:03 18.04150 -63.10584 25 ft 31 kts 89°
2026-05-08 05:03 18.04167 -63.10361 27 ft 31 kts 81°
2026-05-08 05:03 18.04200 -63.10142 27 ft 30 kts 81°
2026-05-08 05:04 18.04240 -63.09946 26 ft 20 kts 60°
2026-05-08 05:04 18.04266 -63.09852 28 ft 10 kts 136°
2026-05-08 05:04 18.04223 -63.09868 26 ft 6 kts 248°
2026-05-08 05:04 18.04228 -63.09912 26 ft 11 kts 282°
2026-05-08 05:05 18.04227 -63.09954 27 ft 0 kts 264°
2026-05-08 05:05 18.04223 -63.10006 23 ft 32 kts 264°
2026-05-08 05:05 18.04152 -63.10468 26 ft 94 kts 260°
2026-05-08 05:06 18.04030 -63.11339 27 ft 145 kts 262°
2026-05-08 05:06 18.03865 -63.12493 298 ft 164 kts 262°
2026-05-08 05:06 18.03700 -63.13698 775 ft 171 kts 265°
2026-05-08 05:06 18.03733 -63.14993 1222 ft 183 kts 276°
2026-05-08 05:07 18.03963 -63.16367 1656 ft 199 kts 287°
2026-05-08 05:07 18.04566 -63.17726 2050 ft 213 kts 307°
2026-05-08 05:07 18.05596 -63.18882 2442 ft 223 kts 326°
2026-05-08 05:07 18.07004 -63.19626 2885 ft 232 kts 347°
2026-05-08 05:08 18.08627 -63.19876 3339 ft 240 kts
2026-05-08 05:08 18.10325 -63.19716 3782 ft 251 kts
2026-05-08 05:08 18.12104 -63.19528 4182 ft 261 kts
2026-05-08 05:08 18.13905 -63.19275 4490 ft 261 kts 18°
2026-05-08 05:09 18.15509 -63.18448 4711 ft 257 kts 39°
2026-05-08 05:09 18.16738 -63.17073 4971 ft 262 kts 54°
2026-05-08 05:09 18.17706 -63.15467 5675 ft 264 kts 61°
2026-05-08 05:09 18.18553 -63.13732 6599 ft 264 kts 64°
2026-05-08 05:10 18.19328 -63.11996 7404 ft 268 kts 64°
2026-05-08 05:10 18.20927 -63.08411 9054 ft 276 kts 63°
2026-05-08 05:10 18.21779 -63.06576 9836 ft 282 kts 62°
2026-05-08 05:11 18.22668 -63.04704 10461 ft 293 kts 62°
2026-05-08 05:11 18.23626 -63.02722 10789 ft 315 kts 61°
2026-05-08 05:11 18.24658 -63.00610 11075 ft 334 kts 60°
2026-05-08 05:11 18.25751 -62.98376 11344 ft 352 kts 61°
2026-05-08 05:12 18.26888 -62.96046 11816 ft 362 kts 61°
2026-05-08 05:12 18.28043 -62.93668 12404 ft 368 kts 61°
2026-05-08 05:12 18.29214 -62.91256 12999 ft 373 kts 61°
2026-05-08 05:12 18.30398 -62.88813 13630 ft 377 kts 60°
2026-05-08 05:13 18.31594 -62.86344 14204 ft 380 kts 60°
2026-05-08 05:13 18.32797 -62.83859 14769 ft 383 kts 60°
2026-05-08 05:13 18.34097 -62.81434 15332 ft 384 kts 54°
2026-05-08 05:13 18.35730 -62.79199 15888 ft 385 kts 47°
2026-05-08 05:14 18.37527 -62.77113 16454 ft 386 kts 44°
2026-05-08 05:14 18.39413 -62.75086 17004 ft 388 kts 43°
2026-05-08 05:14 18.41350 -62.73088 17533 ft 391 kts 42°
2026-05-08 05:14 18.43314 -62.71095 18044 ft 394 kts 42°
2026-05-08 05:15 18.45297 -62.69087 18520 ft 397 kts 42°
2026-05-08 05:15 18.47288 -62.67062 18971 ft 398 kts 42°
2026-05-08 05:15 18.49278 -62.65025 19430 ft 400 kts 43°
2026-05-08 05:15 18.51269 -62.62976 19899 ft 401 kts 43°
2026-05-08 05:16 18.53269 -62.60912 20351 ft 403 kts 43°
2026-05-08 05:16 18.55274 -62.58840 20795 ft 404 kts 43°
2026-05-08 05:16 18.57285 -62.56758 21243 ft 406 kts 43°
2026-05-08 05:16 18.59305 -62.54667 21685 ft 408 kts 43°
2026-05-08 05:17 18.61330 -62.52569 22133 ft 409 kts 43°
2026-05-08 05:17 18.63364 -62.50463 22602 ft 410 kts 43°
2026-05-08 05:17 18.65402 -62.48351 23022 ft 412 kts 43°
2026-05-08 05:17 18.67453 -62.46227 23447 ft 414 kts 43°
2026-05-08 05:18 18.69513 -62.44092 23835 ft 416 kts 43°
2026-05-08 05:18 18.71581 -62.41948 24167 ft 418 kts 43°
2026-05-08 05:18 18.73662 -62.39790 24495 ft 421 kts 43°
2026-05-08 05:18 18.75752 -62.37622 24846 ft 423 kts 43°
2026-05-08 05:19 18.77824 -62.35472 25186 ft 424 kts 43°
2026-05-08 05:19 18.79933 -62.33282 25526 ft 426 kts 43°
2026-05-08 05:19 18.82052 -62.31081 25865 ft 428 kts 43°
2026-05-08 05:19 18.84178 -62.28872 26196 ft 430 kts 43°
2026-05-08 05:20 18.86315 -62.26651 26524 ft 432 kts 43°
2026-05-08 05:20 18.88463 -62.24417 26849 ft 434 kts 43°
2026-05-08 05:20 18.90616 -62.22177 27239 ft 435 kts 43°
2026-05-08 05:20 18.92769 -62.19937 27594 ft 436 kts 43°
2026-05-08 05:21 18.94933 -62.17684 27909 ft 438 kts 43°
2026-05-08 05:21 18.97107 -62.15421 28223 ft 440 kts 43°
2026-05-08 05:21 18.99290 -62.13146 28531 ft 442 kts 43°
2026-05-08 05:21 19.01479 -62.10865 28835 ft 443 kts 43°
2026-05-08 05:22 19.03681 -62.08569 29129 ft 445 kts 43°
2026-05-08 05:22 19.05887 -62.06267 29443 ft 447 kts 43°
2026-05-08 05:22 19.08105 -62.03953 29725 ft 448 kts 43°
2026-05-08 05:22 19.10329 -62.01631 30000 ft 450 kts 43°
2026-05-08 05:23 19.12562 -61.99299 30244 ft 452 kts 43°
2026-05-08 05:23 19.14802 -61.96958 30469 ft 454 kts 43°
2026-05-08 05:23 19.17051 -61.94607 30721 ft 454 kts 43°
2026-05-08 05:23 19.19295 -61.92260 31072 ft 453 kts 43°
2026-05-08 05:24 19.21541 -61.89910 31328 ft 455 kts 43°
2026-05-08 05:24 19.23030 -61.88352 31502 ft 455 kts 43°
2026-05-08 05:24 19.25279 -61.85997 31815 ft 455 kts 43°
2026-05-08 05:24 19.27527 -61.83644 32138 ft 454 kts 43°
2026-05-08 05:25 19.29770 -61.81293 32452 ft 454 kts 43°
2026-05-08 05:25 19.31943 -61.78869 32755 ft 455 kts 48°
2026-05-08 05:25 19.33836 -61.76185 33073 ft 456 kts 55°
2026-05-08 05:25 19.35366 -61.73234 33374 ft 458 kts 62°
2026-05-08 05:26 19.36669 -61.70156 33678 ft 459 kts 64°
2026-05-08 05:26 19.37892 -61.67037 33977 ft 459 kts 65°
2026-05-08 05:26 19.39072 -61.63898 34260 ft 458 kts 65°
2026-05-08 05:26 19.40228 -61.60772 34647 ft 454 kts 65°
2026-05-08 05:27 19.41377 -61.57661 34923 ft 453 kts 65°
2026-05-08 05:27 19.42531 -61.54556 35130 ft 454 kts 65°
2026-05-08 05:27 19.43695 -61.51442 35345 ft 454 kts 65°
2026-05-08 05:27 19.44862 -61.48336 35576 ft 454 kts 65°
2026-05-08 05:28 19.46031 -61.45232 35807 ft 454 kts 65°
2026-05-08 05:28 19.47201 -61.42127 36044 ft 454 kts 65°
2026-05-08 05:28 19.48371 -61.39023 36261 ft 454 kts 65°
2026-05-08 05:28 19.49540 -61.35920 36478 ft 454 kts 65°
2026-05-08 05:29 19.50708 -61.32814 36696 ft 454 kts 65°
2026-05-08 05:29 19.53069 -61.26539 36844 ft 460 kts 65°
2026-05-08 05:29 19.54252 -61.23388 37088 ft 460 kts 65°
2026-05-08 05:30 19.55431 -61.20243 37310 ft 459 kts 65°
2026-05-08 05:30 19.56609 -61.17100 37533 ft 459 kts 65°
2026-05-08 05:30 19.57787 -61.13956 37749 ft 459 kts 65°
2026-05-08 05:30 19.58964 -61.10812 37938 ft 459 kts 65°
2026-05-08 05:31 19.60139 -61.07673 38203 ft 457 kts 65°
2026-05-08 05:31 19.61303 -61.04557 38598 ft 453 kts 65°
2026-05-08 05:31 19.62450 -61.01487 38671 ft 456 kts 65°
2026-05-08 05:32 19.64806 -60.95186 38788 ft 461 kts 66°
2026-05-08 05:32 19.65984 -60.92030 38967 ft 460 kts 66°
2026-05-08 05:32 19.67162 -60.88871 39046 ft 461 kts 66°
2026-05-08 05:33 19.69517 -60.82549 39060 ft 460 kts 66°
2026-05-08 05:33 19.71869 -60.76228 39060 ft 460 kts 66°
2026-05-08 05:34 19.74223 -60.69897 39062 ft 464 kts 66°
2026-05-08 05:34 19.76600 -60.63496 39058 ft 467 kts 66°
2026-05-08 05:35 19.78980 -60.57074 39062 ft 467 kts 66°
2026-05-08 05:35 19.81353 -60.50661 39061 ft 465 kts 66°
2026-05-08 05:36 19.83704 -60.44299 39067 ft 462 kts 66°
2026-05-08 05:36 19.86066 -60.37907 39063 ft 467 kts 66°
2026-05-08 05:37 19.88444 -60.31464 39061 ft 469 kts 66°
2026-05-08 05:37 19.90820 -60.25012 39062 ft 469 kts 66°
2026-05-08 05:38 19.93177 -60.18605 39059 ft 469 kts 66°
2026-05-08 05:38 19.95554 -60.12137 39059 ft 472 kts 66°
2026-05-08 05:39 19.97948 -60.05614 39060 ft 475 kts 66°
2026-05-08 05:39 20.00644 -59.99239 39065 ft 470 kts 57°
2026-05-08 05:40 20.04099 -59.93389 39067 ft 465 kts 54°
2026-05-08 05:40 20.07684 -59.87662 39060 ft 465 kts 53°
2026-05-08 05:41 20.11310 -59.81920 39066 ft 470 kts 54°
2026-05-08 05:41 20.14944 -59.76132 39063 ft 471 kts 54°
2026-05-08 05:42 20.18566 -59.70332 39060 ft 471 kts 54°
2026-05-08 05:42 20.22184 -59.64528 39071 ft 470 kts 54°
2026-05-08 05:43 20.25787 -59.58741 39052 ft 468 kts 54°
2026-05-08 05:43 20.29396 -59.52944 39064 ft 471 kts 54°
2026-05-08 05:44 20.33015 -59.47123 39054 ft 472 kts 54°
2026-05-08 05:44 20.36611 -59.41332 39071 ft 472 kts 54°
2026-05-08 05:45 20.40228 -59.35502 39069 ft 472 kts 54°
2026-05-08 05:45 20.43845 -59.29669 39083 ft 472 kts 54°
2026-05-08 05:46 20.47473 -59.23809 39065 ft 473 kts 54°
2026-05-08 05:46 20.51098 -59.17949 39063 ft 473 kts 54°
2026-05-08 05:47 20.54718 -59.12090 39064 ft 473 kts 54°
2026-05-08 05:47 20.58338 -59.06228 39066 ft 473 kts 54°
2026-05-08 05:48 20.61958 -59.00358 39062 ft 475 kts 54°
2026-05-08 05:48 20.65599 -58.94449 39067 ft 478 kts 54°
2026-05-08 05:49 20.69239 -58.88534 39064 ft 474 kts 54°
2026-05-08 05:49 20.72849 -58.82659 39064 ft 473 kts 54°
2026-05-08 05:50 20.76457 -58.76786 39063 ft 473 kts 54°
2026-05-08 05:50 20.80062 -58.70911 39065 ft 473 kts 54°
2026-05-08 05:51 20.83668 -58.65028 39062 ft 473 kts 54°
2026-05-08 05:51 20.87268 -58.59149 39070 ft 473 kts 54°
2026-05-08 05:52 20.90851 -58.53289 39061 ft 468 kts 54°
2026-05-08 05:52 20.94407 -58.47469 39064 ft 467 kts 54°
2026-05-08 05:53 20.97972 -58.41630 39066 ft 471 kts 54°
2026-05-08 05:53 21.01535 -58.35789 39063 ft 472 kts 54°
2026-05-08 05:54 21.05120 -58.29903 39063 ft 472 kts 54°
2026-05-08 05:54 21.08705 -58.24009 39067 ft 472 kts 55°
2026-05-08 05:55 21.12267 -58.18148 39063 ft 468 kts 55°
2026-05-08 05:55 21.15829 -58.12283 39062 ft 472 kts 55°
2026-05-08 05:56 21.19412 -58.06377 39062 ft 473 kts 55°
2026-05-08 05:56 21.22994 -58.00465 39064 ft 473 kts 55°
2026-05-08 05:57 21.26573 -57.94552 39067 ft 473 kts 55°
2026-05-08 05:57 21.30154 -57.88629 39064 ft 475 kts 55°
2026-05-08 05:58 21.33764 -57.82654 39062 ft 479 kts 55°
2026-05-08 05:58 21.37383 -57.76655 39061 ft 479 kts 55°
2026-05-08 05:59 21.40997 -57.70658 39062 ft 479 kts 55°
2026-05-08 05:59 21.44609 -57.64659 39065 ft 479 kts 55°
2026-05-08 06:00 21.48240 -57.58622 39064 ft 484 kts 55°
2026-05-08 06:00 21.51898 -57.52531 39063 ft 483 kts 55°
2026-05-08 06:01 21.55521 -57.46491 39062 ft 480 kts 55°
2026-05-08 06:01 21.59129 -57.40472 39061 ft 479 kts 55°
2026-05-08 06:02 21.62740 -57.34443 39062 ft 482 kts 55°
2026-05-08 06:02 21.66388 -57.28346 39062 ft 487 kts 55°
2026-05-08 06:03 21.70026 -57.22255 39061 ft 487 kts 55°
2026-05-08 06:03 21.73670 -57.16146 39060 ft 483 kts 55°
2026-05-08 06:04 21.77284 -57.10082 39061 ft 481 kts 56°
2026-05-08 06:04 21.80913 -57.03990 39060 ft 486 kts 56°
2026-05-08 06:05 21.84564 -56.97852 39061 ft 488 kts 56°
2026-05-08 06:05 21.88218 -56.91701 39061 ft 487 kts 56°
2026-05-08 06:06 21.91865 -56.85553 39063 ft 486 kts 56°
2026-05-08 06:06 21.95487 -56.79441 39062 ft 485 kts 56°
2026-05-08 06:07 21.99136 -56.73281 39063 ft 489 kts 56°
2026-05-08 06:07 22.02787 -56.67107 39061 ft 489 kts 56°
2026-05-08 06:08 22.06436 -56.60928 39057 ft 489 kts 56°
2026-05-08 06:08 22.10085 -56.54743 39062 ft 490 kts 56°
2026-05-08 06:09 22.13739 -56.48542 39059 ft 489 kts 56°
2026-05-08 06:09 22.17380 -56.42356 39059 ft 488 kts 56°
2026-05-08 06:10 22.21019 -56.36168 39061 ft 488 kts 56°
2026-05-08 06:10 22.24652 -56.29982 39062 ft 488 kts 56°
2026-05-08 06:11 22.28300 -56.23764 39064 ft 492 kts 56°
2026-05-08 06:11 22.31964 -56.17509 39062 ft 491 kts 56°
2026-05-08 06:12 22.35576 -56.11336 39058 ft 488 kts 56°
2026-05-08 06:12 22.39199 -56.05137 39059 ft 488 kts 56°
2026-05-08 06:13 22.42823 -55.98932 39058 ft 488 kts 56°
2026-05-08 06:13 22.46442 -55.92727 39059 ft 488 kts 56°
2026-05-08 06:14 22.50056 -55.86521 39063 ft 487 kts 56°
2026-05-08 06:14 22.53044 -55.81385 39060 ft 484 kts 56°
2026-05-08 06:15 22.56626 -55.75221 39067 ft 485 kts 56°
2026-05-08 06:15 22.60231 -55.69014 39062 ft 489 kts 56°
2026-05-08 06:16 22.63852 -55.62771 39060 ft 489 kts 56°
2026-05-08 06:16 22.67467 -55.56528 39056 ft 489 kts 56°
2026-05-08 06:17 22.72867 -55.47187 39057 ft 488 kts 56°
2026-05-08 06:17 22.76480 -55.40933 39060 ft 490 kts 56°
2026-05-08 06:18 22.80094 -55.34665 39058 ft 491 kts 56°
2026-05-08 06:18 22.83697 -55.28411 39061 ft 491 kts 56°
2026-05-08 06:19 22.87312 -55.22127 39062 ft 493 kts 56°
2026-05-08 06:19 22.90938 -55.15817 39063 ft 493 kts 56°
2026-05-08 06:20 22.94557 -55.09511 39050 ft 492 kts 56°
2026-05-08 06:20 22.98169 -55.03210 39063 ft 492 kts 56°
2026-05-08 06:21 23.01855 -54.96950 39052 ft 493 kts 54°
2026-05-08 06:21 23.05739 -54.90790 39059 ft 495 kts 53°
2026-05-08 06:22 23.09617 -54.84702 39058 ft 492 kts 53°
2026-05-08 06:22 23.13488 -54.78580 39062 ft 491 kts 53°
2026-05-08 06:23 23.17339 -54.72453 39059 ft 492 kts 54°
2026-05-08 06:23 23.21213 -54.66273 39059 ft 496 kts 54°
2026-05-08 06:24 23.25063 -54.60122 39059 ft 497 kts 54°
2026-05-08 06:24 23.28950 -54.53907 39058 ft 497 kts 54°
2026-05-08 06:25 23.32834 -54.47688 39057 ft 498 kts 54°
2026-05-08 06:25 23.36739 -54.41431 39059 ft 501 kts 54°
2026-05-08 06:26 23.40653 -54.35150 39062 ft 501 kts 54°
2026-05-08 06:26 23.44537 -54.28909 39062 ft 500 kts 54°
2026-05-08 06:27 23.48430 -54.22646 39060 ft 499 kts 54°
2026-05-08 06:27 23.52213 -54.16553 39059 ft 502 kts 54°
2026-05-08 06:28 23.56125 -54.10246 39059 ft 502 kts 54°
2026-05-08 06:28 23.60035 -54.03932 39059 ft 502 kts 54°
2026-05-08 06:29 23.63937 -53.97624 39059 ft 501 kts 54°
2026-05-08 06:29 23.67844 -53.91301 39059 ft 503 kts 54°
2026-05-08 06:30 23.71756 -53.84960 39061 ft 504 kts 54°
2026-05-08 06:30 23.75668 -53.78612 39064 ft 504 kts 54°
2026-05-08 06:31 23.79579 -53.72258 39066 ft 504 kts 54°
2026-05-08 06:31 23.83494 -53.65889 39058 ft 506 kts 54°
2026-05-08 06:32 23.87413 -53.59506 39059 ft 506 kts 54°
2026-05-08 06:32 23.91329 -53.53118 39060 ft 506 kts 54°
2026-05-08 06:33 23.95243 -53.46727 39062 ft 506 kts 54°
2026-05-08 06:33 23.99152 -53.40334 39059 ft 504 kts 54°
2026-05-08 06:34 24.02976 -53.34072 39058 ft 502 kts 54°
2026-05-08 06:34 24.06850 -53.27721 39059 ft 502 kts 54°
2026-05-08 06:35 24.10725 -53.21362 39059 ft 504 kts 54°
2026-05-08 06:35 24.14630 -53.14946 39071 ft 507 kts 54°
2026-05-08 06:36 24.18526 -53.08532 39061 ft 504 kts 54°
2026-05-08 06:36 24.22402 -53.02144 39061 ft 503 kts 54°
2026-05-08 06:37 24.26278 -52.95750 39062 ft 506 kts 54°
2026-05-08 06:37 24.30181 -52.89305 39062 ft 508 kts 54°
2026-05-08 06:38 24.34086 -52.82843 39060 ft 508 kts 54°
2026-05-08 06:38 24.37977 -52.76396 39063 ft 506 kts 54°
2026-05-08 06:39 24.41848 -52.69978 39050 ft 510 kts 54°
2026-05-08 06:39 24.45787 -52.63436 39065 ft 511 kts 55°
2026-05-08 06:40 24.49676 -52.56967 39059 ft 511 kts 54°
2026-05-08 06:40 24.53576 -52.50472 39060 ft 509 kts 55°
2026-05-08 06:41 24.57479 -52.43964 39060 ft 512 kts 55°
2026-05-08 06:41 24.61398 -52.37421 39065 ft 513 kts 55°
2026-05-08 06:42 24.65313 -52.30875 39062 ft 513 kts 55°
2026-05-08 06:42 24.69226 -52.24324 39065 ft 513 kts 55°
2026-05-08 06:43 24.73147 -52.17750 39062 ft 514 kts 55°
2026-05-08 06:43 24.77068 -52.11167 39064 ft 514 kts 55°
2026-05-08 06:44 24.80988 -52.04578 39060 ft 514 kts 55°
2026-05-08 06:44 24.84908 -51.97979 39063 ft 516 kts 55°
2026-05-08 06:45 24.88837 -51.91355 39064 ft 517 kts 55°
2026-05-08 06:45 24.92765 -51.84724 39064 ft 517 kts 55°
2026-05-08 06:46 24.96690 -51.78091 39062 ft 517 kts 56°
2026-05-08 06:46 25.00602 -51.71470 39064 ft 520 kts 56°
2026-05-08 06:47 25.04543 -51.64788 39064 ft 520 kts 56°
2026-05-08 06:47 25.08483 -51.58099 39064 ft 520 kts 56°
2026-05-08 06:48 25.12425 -51.51399 39062 ft 522 kts 56°
2026-05-08 06:48 25.16378 -51.44670 39067 ft 522 kts 56°
2026-05-08 06:49 25.20324 -51.37943 39065 ft 521 kts 56°
2026-05-08 06:49 25.24262 -51.31220 39062 ft 522 kts 56°
2026-05-08 06:50 25.28210 -51.24471 39064 ft 524 kts 56°
2026-05-08 06:50 25.32160 -51.17709 39069 ft 524 kts 56°
2026-05-08 06:51 25.36110 -51.10936 39064 ft 523 kts 56°
2026-05-08 06:51 25.40024 -51.04217 39067 ft 523 kts 56°
2026-05-08 06:52 25.43964 -50.97443 39068 ft 523 kts 56°
2026-05-08 06:52 25.47898 -50.90668 39072 ft 523 kts 56°
2026-05-08 06:53 25.51829 -50.83892 39066 ft 524 kts 57°
2026-05-08 06:53 25.55766 -50.77093 39067 ft 525 kts 57°
2026-05-08 06:54 25.59704 -50.70282 39070 ft 525 kts 57°
2026-05-08 06:54 25.63635 -50.63473 39068 ft 525 kts 57°
2026-05-08 06:55 25.67573 -50.56644 39070 ft 526 kts 57°
2026-05-08 06:55 25.71510 -50.49805 39072 ft 526 kts 57°
2026-05-08 06:56 25.75449 -50.42954 39074 ft 526 kts 57°
2026-05-08 06:56 25.79383 -50.36100 39074 ft 527 kts 57°
2026-05-08 06:57 25.83318 -50.29235 39077 ft 527 kts 57°
2026-05-08 06:57 25.87248 -50.22368 39072 ft 527 kts 57°
2026-05-08 06:58 25.91153 -50.15535 39076 ft 528 kts 57°
2026-05-08 06:58 25.95088 -50.08639 39078 ft 529 kts 57°
2026-05-08 06:59 25.99022 -50.01734 39075 ft 529 kts 57°
2026-05-08 06:59 26.03185 -49.95006 39072 ft 529 kts 53°
2026-05-08 07:00 26.07634 -49.88471 39078 ft 530 kts 52°
2026-05-08 07:00 26.12102 -49.81938 39078 ft 530 kts 52°
2026-05-08 07:01 26.16527 -49.75377 39077 ft 530 kts 52°